Location: Goulburn
(34.7479°S, 149.7277°E)
Time: 02:15:39
(UTC+10:00)

ISS - Visible Passes

Search period start: 18 September 2019 00:00
Search period end: 28 September 2019 00:00
Orbit: 411 x 421 km, 51.6° (Epoch: 18 September)

Date Brightness Start Highest point End Pass type
(mag) Time Alt. Az. Time Alt. Az. Time Alt. Az.
22 Sep -0.9 05:16:24 10° N 05:18:47 18° NE 05:21:12 10° E visible
24 Sep -3.2 05:14:54 10° NW 05:18:15 61° NE 05:21:39 10° SE visible
25 Sep -2.1 04:27:33 15° N 04:29:47 30° NE 04:32:51 10° ESE visible
26 Sep -1.1 03:41:30 16° NE 03:41:30 16° NE 03:43:37 10° E visible
26 Sep -3.0 05:14:38 10° WNW 05:17:53 40° SW 05:21:09 10° SSE visible
27 Sep -3.8 04:28:13 40° WNW 04:29:17 75° SW 04:32:43 10° SE visible
